Location: Newark
(51.5033°N, 0.1199°W)
Time: 03:53:47
(UTC+00:00)

PicSat - Pass Details

Date: 27 September 2019
Orbit: 486 x 499 km, 97.5° (Epoch: 16 October)

Event Time Altitude Azimuth Distance (km) Brightness Sun altitude
Exits shadow 22:05:09 11° 333° (NNW) 1,681 ? -35.5°
Drops below altitude 10° 22:05:15 10° 334° (NNW) 1,721 ? -35.5°
Sets 22:07:25 0° 341° (NNW) 2,606 ? -35.7°
